Regional Weather Roundup
Issued by NWS Albany, NY

Home | Current Version | Previous Version | Text Only | Print | Product List | Glossary On
Versions: 1 2 3 4 5 6 7 8 9 10 11 12 13 14 15 16 17 18 19 20 21 22 23 24 25 26 27 28 29 30 31 32 33 34 35 36 37 38 39 40 41 42 43 44 45 46 47 48 49 50
000
ASUS41 KALY 240510
RWRALY

NEW YORK STATE HOURLY WEATHER ROUNDUP
NATIONAL WEATHER SERVICE ALBANY NY
100 AM EDT WED SEP 24 2014

NOTE: "FAIR" INDICATES FEW OR NO CLOUDS BELOW 12,000 FEET WITH NO
SIGNIFICANT WEATHER AND/OR NO OBSTRUCTIONS TO VISIBILITY.

NYZ032-033-038>043-046>054-057>066-NYZ062>081-240600-
EAST


CITY           SKY/WX    TMP DP  RH WIND       PRES   REMARKS
ALBANY         PTCLDY    53  49  86 CALM      30.45R
GLENS FALLS    CLEAR     49  46  90 MISG      30.44R
POUGHKEEPSIE   CLEAR     50  47  89 CALM      30.44R
NEWBURGH       CLEAR     52  48  87 CALM      30.45R
MONTGOMERY     CLEAR     49  47  93 CALM      30.44R
WHITE PLAINS   CLEAR     53  49  86 CALM      30.44R
ISLIP          CLEAR     54  50  86 CALM      30.42R
NEW YORK CITY  PTCLDY    63  51  65 CALM      30.42R
CENTRAL PARK   CLEAR     61  53  75 CALM      30.45R
$$

NYZ005>009-017-018-044>046-055-056-240600-
CENTRAL


CITY           SKY/WX    TMP DP  RH WIND       PRES   REMARKS
FULTON         CLEAR     52  49  89 CALM      30.42R
SYRACUSE       PTCLDY    53  50  89 SE6       30.42R
ROME           CLEAR     51  50  96 CALM      30.44R
ELMIRA         CLEAR     46  46 100 CALM      30.44R FOG
BINGHAMTON     CLEAR     55  48  77 SE5       30.44R
MONTICELLO     CLEAR     48  46  93 NE3       30.46R
$$

NYZ026>034-041>043-240600-
NORTH


CITY           SKY/WX    TMP DP  RH WIND       PRES   REMARKS
WATERTOWN      MOCLDY    55  48  77 CALM      30.41R
FORT DRUM      NOT AVBL
MASSENA        FOG       45  45 100 CALM      30.43R VSB 3/4
SARANAC LAKE   FOG       42  41  96 CALM      30.43R VSB 1/4
PLATTSBURGH    PTCLDY    49  48  97 CALM      30.44R FOG
$$

NYZ001>004-010>016-019>021-240600-
WEST


CITY           SKY/WX    TMP DP  RH WIND       PRES   REMARKS
NIAGARA FALLS  CLEAR     51  49  92 CALM      30.40R
BUFFALO        CLEAR     52  49  89 SE5       30.41R
DUNKIRK        CLEAR     47  45  93 S3        30.41R
JAMESTOWN      CLEAR     52  48  87 CALM      30.42S
WELLSVILLE     CLEAR     49  48  97 CALM      30.45R
ROCHESTER      CLEAR     52  50  93 SW5       30.42R
PENN YAN       CLEAR     54  51  90 SW5       30.43R
$$

             KEY
       WCI = WIND CHILL INDEX
       VSB = VISIBILITY
       HX  = HEAT INDEX
$$



USA.gov is the U.S. government's official web portal to all federal, state and local government web resources and services.